Location: *
(37.5724°S, 58.0067°E)
Time: 01:41:06
(UTC+00:00)

X-37B - Pass Details

Date: 03 December 2020
Orbit: 385 x 390 km, 45.0° (Epoch: 20 January)

Event Time Altitude Azimuth Distance (km) Brightness Sun altitude
Exits shadow 22:18:48 17° 68° (ENE) 1,080 2.9 -21.6°
Drops below altitude 10° 22:20:11 10° 90° (E) 1,439 3.9 -21.5°
Sets 22:22:36 0° 107° (ESE) 2,303 5.3 -21.2°
